Regional Weather Roundup
Issued by NWS

Home | Current Version | Previous Version | Graphics & Text | Print | Product List | Glossary On
Versions: 1 2 3 4 5 6 7 8 9 10 11 12 13 14 15 16 17 18 19 20 21 22 23 24 25 26 27 28 29 30 31 32 33 34 35 36 37 38 39 40 41 42 43 44 45 46 47 48 49 50
000
ASUS43 KBIS 010002
RWRND

NORTH DAKOTA REGIONAL WEATHER ROUNDUP
NATIONAL WEATHER SERVICE BISMARCK ND
600 PM CST TUE FEB 28 2017

NOTE: "FAIR" INDICATES FEW OR NO CLOUDS BELOW 12,000 FEET WITH NO
SIGNIFICANT WEATHER AND/OR OBSTRUCTIONS TO VISIBILITY.


NDZ001>003-009>011-017-010100-
NORTHWEST NORTH DAKOTA

CITY           SKY/WX    TMP DP  RH WIND       PRES   REMARKS
WILLISTON      CLOUDY    28  21  75 E6        29.80R
6HR MIN TEMP:  18; 6HR MAX TEMP:  28;

MINOT          CLOUDY    14   7  73 E8        29.88R WCI   3
MINOT AFB      CLOUDY    12   6  76 E9        29.88R WCI   0
$$

NDZ018>021-031>035-040>046-010100-
SOUTHWEST NORTH DAKOTA

CITY           SKY/WX    TMP DP  RH WIND       PRES   REMARKS
BISMARCK       CLOUDY    24  17  74 E7        29.87R WCI  16
6HR MIN TEMP:  21; 6HR MAX TEMP:  26;

DICKINSON      CLOUDY    25  20  81 S8        29.76R WCI  16
GARRISON         N/A     16  11  80 E5        29.84R WCI   9
6HR MIN TEMP:  14; 6HR MAX TEMP:  20;

HETTINGER ARPT CLOUDY    26  18  71 SE3       29.79R
$$

NDZ004>008-012>016-024-026-027-054-010100-
NORTHEAST NORTH DAKOTA

CITY           SKY/WX    TMP DP  RH WIND       PRES   REMARKS
GRAND FORKS    MOCLDY    19   9  65 N13       29.91R WCI   6
DEVILS LAKE    FAIR      12   6  77 N8        29.90S WCI   0
$$

NDZ022-023-025-028>030-036>039-047>053-010100-
SOUTHEAST NORTH DAKOTA

CITY           SKY/WX    TMP DP  RH WIND       PRES   REMARKS
FARGO          CLEAR     28  23  81 N13       29.85R WCI  17
6HR MIN TEMP:  27; 6HR MAX TEMP:  31;

JAMESTOWN      CLOUDY    23  17  78 N9        29.86R WCI  13
$$





USA.gov is the U.S. government's official web portal to all federal, state and local government web resources and services.